TimeCST,TemperatureF,Dew PointF,Humidity,Sea Level PressureIn,VisibilityMPH,Wind Direction,Wind SpeedMPH,Gust SpeedMPH,PrecipitationIn,Events,Conditions,WindDirDegrees,DateUTC
12:53 AM,62.1,61.0,96,30.32,5.0,ESE,3.5,-,N/A,,Overcast,110,2013-01-10 06:53:00
1:41 AM,62.6,60.8,94,30.33,5.0,East,3.5,-,N/A,,Overcast,90,2013-01-10 07:41:00
1:53 AM,63.0,61.0,93,30.32,6.0,ENE,3.5,-,N/A,,Overcast,70,2013-01-10 07:53:00
2:53 AM,63.0,61.0,93,30.30,2.5,East,4.6,-,0.02,Rain,Rain,90,2013-01-10 08:53:00
3:08 AM,62.6,60.8,94,30.31,4.0,East,5.8,-,0.00,Rain,Light Rain,80,2013-01-10 09:08:00
3:53 AM,63.0,61.0,93,30.28,5.0,Variable,4.6,-,0.01,Rain,Light Rain,0,2013-01-10 09:53:00
4:53 AM,63.0,61.0,93,30.27,4.0,ESE,6.9,-,0.00,,Overcast,110,2013-01-10 10:53:00
5:17 AM,62.6,60.8,94,30.27,2.5,ESE,6.9,-,N/A,,Overcast,120,2013-01-10 11:17:00
5:30 AM,62.6,60.8,94,30.28,1.5,ESE,5.8,-,N/A,,Overcast,120,2013-01-10 11:30:00
5:53 AM,63.0,62.1,97,30.26,1.2,ESE,4.6,-,N/A,,Overcast,110,2013-01-10 11:53:00
6:26 AM,62.6,62.6,100,30.28,2.5,ESE,5.8,-,N/A,,Overcast,120,2013-01-10 12:26:00
6:43 AM,62.6,62.6,100,30.28,3.0,ESE,8.1,-,N/A,,Overcast,120,2013-01-10 12:43:00
6:53 AM,63.0,62.1,97,30.27,3.0,ESE,6.9,-,N/A,,Overcast,120,2013-01-10 12:53:00
7:53 AM,63.0,62.1,97,30.29,2.0,ESE,5.8,-,N/A,,Overcast,120,2013-01-10 13:53:00
8:27 AM,64.4,62.6,94,30.31,3.0,ESE,4.6,-,N/A,,Overcast,120,2013-01-10 14:27:00
8:53 AM,64.0,63.0,96,30.30,1.5,Variable,3.5,-,N/A,,Overcast,0,2013-01-10 14:53:00
9:51 AM,64.4,64.4,100,30.31,2.5,ESE,3.5,-,N/A,,Overcast,110,2013-01-10 15:51:00
9:53 AM,64.9,64.0,97,30.30,2.5,Variable,3.5,-,N/A,,Overcast,0,2013-01-10 15:53:00
10:00 AM,64.4,64.4,100,30.30,4.0,ESE,4.6,-,N/A,,Overcast,120,2013-01-10 16:00:00
10:53 AM,66.0,64.0,93,30.28,4.0,SE,9.2,16.1,N/A,,Overcast,130,2013-01-10 16:53:00
11:53 AM,66.0,64.0,93,30.26,2.0,SE,8.1,-,N/A,,Overcast,130,2013-01-10 17:53:00
11:58 AM,66.2,64.4,94,30.26,1.8,SE,5.8,-,N/A,,Overcast,130,2013-01-10 17:58:00
12:13 PM,66.2,64.4,94,30.26,2.5,ESE,6.9,-,N/A,,Overcast,120,2013-01-10 18:13:00
12:22 PM,66.2,64.4,94,30.25,4.0,SE,5.8,-,N/A,,Overcast,130,2013-01-10 18:22:00
12:53 PM,66.9,64.9,93,30.23,9.0,SE,10.4,-,N/A,,Overcast,140,2013-01-10 18:53:00
1:24 PM,68.0,64.4,88,30.25,10.0,SE,8.1,-,N/A,,Overcast,140,2013-01-10 19:24:00
1:53 PM,68.0,64.9,90,30.22,10.0,ESE,9.2,-,N/A,,Overcast,120,2013-01-10 19:53:00
2:29 PM,68.0,64.4,88,30.21,10.0,SE,6.9,-,N/A,,Overcast,130,2013-01-10 20:29:00
2:37 PM,68.0,64.4,88,30.21,10.0,SE,6.9,16.1,N/A,,Overcast,130,2013-01-10 20:37:00
2:53 PM,68.0,64.0,87,30.20,10.0,ESE,8.1,-,N/A,,Overcast,110,2013-01-10 20:53:00
3:53 PM,68.0,64.0,87,30.19,10.0,ESE,10.4,-,N/A,,Mostly Cloudy,120,2013-01-10 21:53:00
4:04 PM,68.0,64.4,88,30.20,10.0,ESE,8.1,-,N/A,,Overcast,120,2013-01-10 22:04:00
4:53 PM,68.0,64.0,87,30.19,4.0,ESE,5.8,-,0.01,Rain,Light Rain,120,2013-01-10 22:53:00
5:03 PM,66.2,64.4,94,30.20,7.0,ESE,5.8,-,0.00,,Overcast,110,2013-01-10 23:03:00
5:34 PM,66.2,64.4,94,30.20,1.8,ESE,4.6,-,0.10,Rain,Heavy Rain,110,2013-01-10 23:34:00
5:41 PM,66.2,64.4,94,30.20,3.0,East,6.9,-,0.10,Rain,Light Rain,100,2013-01-10 23:41:00
5:53 PM,66.0,64.0,93,30.19,10.0,ESE,6.9,-,0.10,,Overcast,120,2013-01-10 23:53:00
6:02 PM,66.2,64.4,94,30.20,10.0,ESE,6.9,-,N/A,,Overcast,120,2013-01-11 00:02:00
6:53 PM,66.0,63.0,90,30.18,9.0,Variable,4.6,-,N/A,,Mostly Cloudy,0,2013-01-11 00:53:00
7:11 PM,64.4,62.6,94,30.18,8.0,ESE,6.9,-,N/A,,Overcast,110,2013-01-11 01:11:00
7:36 PM,66.2,62.6,88,30.18,9.0,SE,8.1,-,N/A,,Overcast,140,2013-01-11 01:36:00
7:53 PM,66.0,63.0,90,30.18,9.0,SE,9.2,-,N/A,,Overcast,140,2013-01-11 01:53:00
8:53 PM,66.0,63.0,90,30.12,8.0,SE,10.4,21.9,N/A,,Overcast,130,2013-01-11 02:53:00
9:32 PM,66.2,62.6,88,30.07,9.0,SE,18.4,28.8,N/A,,Overcast,130,2013-01-11 03:32:00
9:53 PM,66.0,62.1,87,30.02,9.0,ESE,15.0,31.1,N/A,,Overcast,120,2013-01-11 03:53:00
10:53 PM,66.0,62.1,87,30.07,10.0,SE,11.5,21.9,N/A,,Mostly Cloudy,140,2013-01-11 04:53:00
11:02 PM,66.2,60.8,83,30.08,10.0,SE,13.8,21.9,N/A,,Scattered Clouds,140,2013-01-11 05:02:00
11:53 PM,66.0,60.1,81,30.09,10.0,SSE,13.8,19.6,N/A,,Clear,160,2013-01-11 05:53:00